WI1SKY Weather Reports


Display with metric or nautical units.
time (UTC)temp
F
wind
direction
speed
MPH
gust
MPH
rain 1hr
in
rain 24hr
in
rain mn
in
humidity
%
barometer
mb
20260507191355 59 306 8.0 13.0 0.00 0.00 0.00 38 1008.9
20260507190854 59 293 9.0 12.0 0.00 0.00 0.00 36 1008.9
20260507190355 59 301 7.0 14.0 0.00 0.00 0.00 35 1008.9
20260507185854 59 313 7.0 14.0 0.00 0.00 0.00 35 1008.8
20260507185354 59 294 7.0 12.0 0.00 0.00 0.00 37 1009.0
20260507184855 59 316 6.0 11.0 0.00 0.00 0.00 38 1008.9
20260507184355 59 292 7.0 11.0 0.00 0.00 0.00 36 1008.9
20260507183854 58 300 7.0 11.0 0.00 0.00 0.00 40 1009.0
20260507183354 58 318 7.0 12.0 0.00 0.00 0.00 36 1009.1
20260507182854 59 311 6.0 12.0 0.00 0.00 0.00 39 1009.1
20260507182354 59 306 4.0 8.0 0.00 0.00 0.00 39 1009.2
20260507182207 59 290 5.0 10.0 0.00 0.00 0.00 40 1009.2
20260507181804 57 184 6.0 10.0 0.00 0.00 0.00 41 1009.2
20260507181759 58 202 6.0 12.0 0.00 0.00 0.00 41 1009.3
20260507181748 58 314 5.0 10.0 0.00 0.00 0.00 44 1009.2
20260507181739 57 281 5.0 10.0 0.00 0.00 0.00 44 1009.2
20260507175352 57 310 5.0 12.0 0.00 0.00 0.00 44 1009.4
20260507175204 56 278 3.0 10.0 0.00 0.00 0.00 47 1009.5
20260507174350 56 211 3.0 9.0 0.00 0.00 0.00 45 1009.5
20260507174206 55 288 4.0 9.0 0.00 0.00 0.00 46 1009.7
20260507173350 54 322 4.0 10.0 0.00 0.00 0.00 45 1009.7
20260507173209 54 210 3.0 10.0 0.00 0.00 0.00 48 1009.8
20260507172351 53 321 3.0 7.0 0.00 0.00 0.00 50 1010.0
20260507171850 53 260 3.0 8.0 0.00 0.00 0.00 51 1010.0
20260507171349 53 324 3.0 8.0 0.00 0.00 0.00 53 1010.1
20260507170848 52 184 3.0 8.0 0.00 0.00 0.00 52 1010.3
20260507170656 52 267 3.0 5.0 0.00 0.00 0.00 54 1010.1
20260507165846 51 302 3.0 6.0 0.00 0.00 0.00 55 1010.3
20260507165700 50 254 3.0 7.0 0.00 0.00 0.00 54 1010.3
20260507164841 50 194 3.0 7.0 0.00 0.00 0.00 55 1010.4
20260507164340 50 215 3.0 6.0 0.00 0.00 0.00 57 1010.5
20260507164153 49 219 3.0 6.0 0.00 0.00 0.00 54 1010.4
20260507163339 50 188 3.0 6.0 0.00 0.00 0.00 54 1010.5
20260507162839 50 173 2.0 6.0 0.00 0.00 0.00 55 1010.6
20260507162337 50 231 2.0 5.0 0.00 0.00 0.00 57 1010.6
20260507161838 50 232 2.0 4.0 0.00 0.00 0.00 54 1010.6
20260507161338 49 265 2.0 5.0 0.00 0.00 0.00 55 1010.6
20260507160838 49 207 1.0 5.0 0.00 0.00 0.00 56 1010.7
20260507160338 49 263 2.0 3.0 0.00 0.00 0.00 56 1010.8
20260507155838 48 260 2.0 3.0 0.00 0.00 0.00 59 1010.8
20260507155336 48 279 2.0 3.0 0.00 0.00 0.00 59 1010.9
20260507155145 48 210 2.0 4.0 0.00 0.00 0.00 58 1011.0
20260507154459 48 210 1.0 4.0 0.00 0.00 0.00 57 1011.2
20260507154432 48 210 2.0 4.0 0.00 0.00 0.00 58 1011.1
20260507153329 47 297 2.0 3.0 0.00 0.00 0.00 61 1011.3
20260507152830 47 297 2.0 4.0 0.00 0.00 0.00 61 1011.4
20260507152329 47 297 2.0 5.0 0.00 0.00 0.00 60 1011.4
20260507151831 47 297 3.0 5.0 0.00 0.00 0.00 61 1011.5
20260507151329 47 309 3.0 5.0 0.00 0.00 0.00 62 1011.6
20260507150829 47 328 3.0 6.0 0.00 0.00 0.00 64 1011.6
20260507150328 46 316 3.0 6.0 0.00 0.00 0.00 67 1011.7
20260507145829 45 338 3.0 6.0 0.00 0.00 0.00 66 1011.7
20260507145329 45 329 2.0 5.0 0.00 0.00 0.00 67 1011.8
20260507144830 44 309 0.0 5.0 0.00 0.00 0.00 67 1011.8
20260507144329 44 287 0.0 0.0 0.00 0.00 0.00 67 1011.9
20260507143831 44 287 0.0 0.0 0.00 0.00 0.00 65 1012.0
20260507143329 43 287 0.0 1.0 0.00 0.00 0.00 67 1012.1
20260507142830 43 287 0.0 1.0 0.00 0.00 0.00 66 1012.1
20260507142328 43 288 1.0 3.0 0.00 0.00 0.00 69 1012.1
20260507141829 43 288 1.0 3.0 0.00 0.00 0.00 69 1012.1
20260507141328 43 288 0.0 2.0 0.00 0.00 0.00 70 1012.1
20260507140828 42 288 0.0 2.0 0.00 0.00 0.00 70 1012.1
20260507140328 42 324 1.0 2.0 0.00 0.00 0.00 69 1012.1
20260507135826 41 324 1.0 3.0 0.00 0.00 0.00 70 1012.0
20260507135326 41 324 2.0 3.0 0.00 0.00 0.00 74 1012.1
20260507134826 40 323 1.0 3.0 0.00 0.00 0.00 77 1012.1
20260507134318 39 44 0.0 0.0 0.00 0.00 0.00 80 1012.2
20260507133816 39 54 0.0 0.0 0.00 0.00 0.00 82 1012.1
20260507133315 38 54 0.0 0.0 0.00 0.00 0.00 85 1012.1
20260507133126 38 54 0.0 0.0 0.00 0.00 0.00 84 1012.0
20260507132312 37 54 0.0 0.0 0.00 0.00 0.00 84 1012.1
20260507131810 37 54 0.0 0.0 0.00 0.00 0.00 83 1012.1
20260507131310 37 54 0.0 0.0 0.00 0.00 0.00 83 1012.0
20260507130810 36 54 0.0 0.0 0.00 0.00 0.00 84 1012.1
20260507130310 36 54 0.0 0.0 0.00 0.00 0.00 84 1012.2
20260507130127 35 54 0.0 0.0 0.00 0.00 0.00 83 1012.2
20260507125308 35 54 0.0 0.0 0.00 0.00 0.00 82 1012.3
20260507124806 35 54 0.0 0.0 0.00 0.00 0.00 82 1012.4
20260507124304 35 54 0.0 1.0 0.00 0.00 0.00 82 1012.3
20260507123805 35 54 0.0 1.0 0.00 0.00 0.00 82 1012.2
20260507123304 35 54 0.0 0.0 0.00 0.00 0.00 82 1012.3
20260507122804 35 54 0.0 0.0 0.00 0.00 0.00 83 1012.3
20260507122307 35 54 0.0 0.0 0.00 0.00 0.00 85 1012.2
20260507121804 34 54 0.0 0.0 0.00 0.00 0.00 86 1012.2
20260507121304 33 54 0.0 0.0 0.00 0.00 0.00 87 1012.2
20260507120804 33 54 0.0 0.0 0.00 0.00 0.00 87 1012.3
20260507120303 32 54 0.0 0.0 0.00 0.00 0.00 88 1012.3
20260507115805 32 54 0.0 0.0 0.00 0.00 0.00 89 1012.3
20260507115306 31 54 0.0 0.0 0.00 0.00 0.00 89 1012.2
20260507114808 31 54 0.0 0.0 0.00 0.00 0.00 89 1012.2
20260507114307 30 54 0.0 0.0 0.00 0.00 0.00 88 1012.2
20260507113806 30 54 0.0 0.0 0.00 0.00 0.00 88 1012.2
20260507113305 30 54 0.0 0.0 0.00 0.00 0.00 87 1012.2
20260507113109 30 54 0.0 0.0 0.00 0.00 0.00 87 1012.1
20260507112301 30 54 0.0 0.0 0.00 0.00 0.00 87 1012.0
20260507111801 30 54 0.0 0.0 0.00 0.00 0.00 87 1012.0
20260507111301 30 54 0.0 0.0 0.00 0.00 0.00 87 1012.0
20260507110801 30 54 0.0 0.0 0.00 0.00 0.00 86 1012.0
20260507110300 30 54 0.0 0.0 0.00 0.00 0.00 86 1012.0
20260507105300 30 54 0.0 0.0 0.00 0.00 0.00 86 1012.0
20260507104802 30 54 0.0 0.0 0.00 0.00 0.00 86 1012.0
20260507104302 30 54 0.0 0.0 0.00 0.00 0.00 86 1012.0
20260507104100 30 54 0.0 0.0 0.00 0.00 0.00 86 1012.0
20260507103610 30 54 0.0 0.0 0.00 0.00 0.00 85 1012.0
20260507102801 31 54 0.0 0.0 0.00 0.00 0.00 85 1012.0
20260507102300 31 54 0.0 0.0 0.00 0.00 0.00 85 1012.1
20260507101801 31 54 0.0 0.0 0.00 0.00 0.00 85 1012.0
20260507101300 31 54 0.0 0.0 0.00 0.00 0.00 85 1012.1
20260507100801 31 54 0.0 0.0 0.00 0.00 0.00 85 1012.1
20260507100301 31 54 0.0 0.0 0.00 0.00 0.00 85 1012.1
20260507095802 31 54 0.0 0.0 0.00 0.00 0.00 84 1012.1
20260507095301 31 54 0.0 0.0 0.00 0.00 0.00 85 1012.2
20260507095058 31 54 0.0 0.0 0.00 0.00 0.00 85 1012.2
20260507094301 31 54 0.0 0.0 0.00 0.00 0.00 85 1012.3
20260507093801 31 54 0.0 0.0 0.00 0.00 0.00 85 1012.3
20260507093556 31 54 0.0 0.0 0.00 0.00 0.00 85 1012.3
20260507092801 31 54 0.0 0.0 0.00 0.00 0.00 85 1012.3
20260507092306 31 54 0.0 0.0 0.00 0.00 0.00 85 1012.3
20260507092058 31 54 0.0 0.0 0.00 0.00 0.00 85 1012.4
20260507091303 31 54 0.0 0.0 0.00 0.00 0.00 85 1012.4
20260507090802 31 54 0.0 0.0 0.00 0.00 0.00 84 1012.4
20260507090302 31 54 0.0 0.0 0.00 0.00 0.00 84 1012.4
20260507085804 31 54 0.0 0.0 0.00 0.00 0.00 84 1012.5
20260507085306 31 54 0.0 0.0 0.00 0.00 0.00 84 1012.6
20260507084802 31 54 0.0 0.0 0.00 0.00 0.00 84 1012.6
20260507084302 31 54 0.0 0.0 0.00 0.00 0.00 84 1012.6
20260507083803 31 54 0.0 0.0 0.00 0.00 0.00 83 1012.6
20260507083302 31 54 0.0 0.0 0.00 0.00 0.00 83 1012.7
20260507083219 31 54 0.0 0.0 0.00 0.00 0.00 83 1012.7
20260507082309 31 54 0.0 0.0 0.00 0.00 0.00 83 1012.7
20260507081921 31 54 0.0 0.0 0.00 0.00 0.00 84 1012.7
20260507081825 31 54 0.0 0.0 0.00 0.00 0.00 84 1012.7
20260507080803 31 54 0.0 0.0 0.00 0.00 0.00 84 1012.6
20260507080305 31 54 0.0 0.0 0.00 0.00 0.00 84 1012.7
20260507075801 31 54 0.0 0.0 0.00 0.00 0.00 84 1012.7
20260507075307 31 54 0.0 0.0 0.00 0.00 0.00 84 1012.7
20260507074801 31 54 0.0 0.0 0.00 0.00 0.00 83 1012.7
20260507074301 31 54 0.0 0.0 0.00 0.00 0.00 83 1012.7
20260507073801 31 54 0.0 0.0 0.00 0.00 0.00 83 1012.7
20260507073301 31 54 0.0 0.0 0.00 0.00 0.00 83 1012.7
20260507072800 32 54 0.0 0.0 0.00 0.00 0.00 83 1012.7
20260507072306 32 54 0.0 0.0 0.00 0.00 0.00 83 1012.7
20260507071805 32 54 0.0 0.0 0.00 0.00 0.00 83 1012.7
20260507071302 32 54 0.0 0.0 0.00 0.00 0.00 83 1012.7
20260507070806 32 54 0.0 0.0 0.00 0.00 0.00 82 1012.8
20260507070305 33 54 0.0 0.0 0.00 0.00 0.00 81 1012.9
20260507065804 33 54 0.0 0.0 0.00 0.00 0.00 80 1013.0
20260507065300 33 54 0.0 0.0 0.00 0.00 0.00 80 1012.9
20260507064802 33 54 0.0 0.0 0.00 0.00 0.00 80 1013.1
20260507064300 33 54 0.0 0.0 0.00 0.00 0.00 81 1012.9
20260507063949 33 54 0.0 0.0 0.00 0.00 0.00 80 1013.0
20260507063831 33 54 0.0 0.0 0.00 0.00 0.00 81 1013.1
20260507062803 33 54 0.0 0.0 0.00 0.00 0.00 80 1013.2
20260507062650 33 54 0.0 0.0 0.00 0.00 0.00 79 1013.3
20260507062404 33 54 0.0 0.0 0.00 0.00 0.00 80 1013.1
20260507061834 33 54 0.0 0.0 0.00 0.00 0.00 79 1013.3
20260507060801 33 54 0.0 0.0 0.00 0.00 0.00 79 1013.3
20260507060300 33 54 0.0 0.0 0.00 0.00 0.00 79 1013.3
20260507055807 33 54 0.0 0.0 0.00 0.00 0.00 78 1013.4
20260507055449 33 54 0.0 0.0 0.00 0.00 0.00 78 1013.4
20260507054902 33 54 0.0 0.0 0.00 0.00 0.00 78 1013.4
20260507054330 33 54 0.0 0.0 0.00 0.00 0.00 77 1013.6
20260507053301 33 54 0.0 0.0 0.00 0.00 0.00 77 1013.4
20260507052804 33 54 0.0 0.0 0.00 0.00 0.00 76 1013.4
20260507052306 33 54 0.0 0.0 0.00 0.00 0.00 76 1013.5
20260507051801 34 54 0.0 0.0 0.00 0.00 0.00 76 1013.5
20260507051301 34 54 0.0 0.0 0.00 0.00 0.00 76 1013.6
20260507050801 34 84 0.0 0.0 0.00 0.00 0.00 75 1013.6
20260507050303 34 84 0.0 0.0 0.00 0.00 0.00 74 1013.6
20260507045802 35 84 0.0 1.0 0.00 0.00 0.00 74 1013.5
20260507045300 35 84 0.0 1.0 0.00 0.00 0.00 73 1013.5
20260507044801 35 84 0.0 0.0 0.00 0.00 0.00 72 1013.6
20260507044636 36 84 0.0 1.0 0.00 0.00 0.00 70 1013.6
20260507044605 36 84 0.0 1.0 0.00 0.00 0.00 70 1013.6
20260507044348 36 84 0.0 1.0 0.00 0.00 0.00 71 1013.6
20260507042810 36 84 0.0 2.0 0.00 0.00 0.00 70 1013.5
20260507042306 36 84 1.0 2.0 0.00 0.00 0.00 70 1013.6
20260507041805 36 84 1.0 3.0 0.00 0.00 0.00 69 1013.6
20260507041301 36 84 0.0 3.0 0.00 0.00 0.00 68 1013.7
20260507041011 37 306 0.0 0.0 0.00 0.00 0.00 68 1013.8
20260507040830 36 306 0.0 0.0 0.00 0.00 0.00 68 1013.7
20260507035955 37 306 0.0 0.0 0.00 0.00 0.00 66 1014.0
20260507035826 37 306 0.0 0.0 0.00 0.00 0.00 66 1013.9
20260507034800 37 306 0.0 0.0 0.00 0.00 0.00 66 1014.0
20260507034720 38 306 0.0 0.0 0.00 0.00 0.00 64 1014.2
20260507034708 38 306 0.0 0.0 0.00 0.00 0.00 65 1014.1
20260507034412 37 306 0.0 0.0 0.00 0.00 0.00 66 1014.1
20260507033837 37 306 0.0 0.0 0.00 0.00 0.00 65 1014.1
20260507032250 38 306 0.0 0.0 0.00 0.00 0.00 64 1014.2
20260507031753 39 306 0.0 0.0 0.00 0.00 0.00 60 1014.2
20260507031250 39 306 0.0 0.0 0.00 0.00 0.00 59 1014.1
20260507030751 39 306 0.0 0.0 0.00 0.00 0.00 59 1014.2
20260507030252 39 306 0.0 0.0 0.00 0.00 0.00 60 1014.2
20260507025748 39 306 0.0 0.0 0.00 0.00 0.00 60 1014.4
20260507025446 40 306 0.0 0.0 0.00 0.00 0.00 58 1014.5
20260507025315 40 306 0.0 0.0 0.00 0.00 0.00 59 1014.5
20260507024551 40 306 0.0 0.0 0.00 0.00 0.00 56 1014.5
20260507024337 40 306 0.0 0.0 0.00 0.00 0.00 57 1014.4
20260507023809 40 306 0.0 0.0 0.00 0.00 0.00 57 1014.5
20260507022749 40 306 0.0 0.0 0.00 0.00 0.00 57 1014.4
20260507022241 40 306 0.0 1.0 0.00 0.00 0.00 57 1014.2
20260507021742 41 306 1.0 2.0 0.00 0.00 0.00 58 1014.2
20260507021240 41 306 1.0 2.0 0.00 0.00 0.00 57 1014.1
20260507020740 41 306 1.0 2.0 0.00 0.00 0.00 59 1014.1
20260507020239 41 306 2.0 2.0 0.00 0.00 0.00 59 1014.1
20260507015736 41 306 2.0 3.0 0.00 0.00 0.00 57 1014.1
20260507015234 42 306 2.0 3.0 0.00 0.00 0.00 58 1014.0
20260507014735 42 306 2.0 3.0 0.00 0.00 0.00 55 1014.0
20260507014235 42 306 3.0 4.0 0.00 0.00 0.00 55 1013.9
20260507013735 42 306 3.0 4.0 0.00 0.00 0.00 54 1013.9
20260507013232 42 306 3.0 4.0 0.00 0.00 0.00 54 1013.8
20260507012735 43 306 3.0 4.0 0.00 0.00 0.00 54 1013.8
20260507012236 43 306 2.0 3.0 0.00 0.00 0.00 54 1013.8
20260507011733 43 306 2.0 4.0 0.00 0.00 0.00 54 1013.8
20260507011231 43 306 3.0 4.0 0.00 0.00 0.00 53 1013.8
20260507010739 44 306 3.0 4.0 0.00 0.00 0.00 54 1013.9
20260507010235 44 306 3.0 4.0 0.00 0.00 0.00 55 1013.9
20260507005732 44 306 3.0 4.0 0.00 0.00 0.00 54 1013.9
20260507005233 44 295 3.0 4.0 0.00 0.00 0.00 55 1013.9
20260507004731 44 295 3.0 5.0 0.00 0.00 0.00 54 1013.9
20260507004234 44 300 4.0 5.0 0.00 0.00 0.00 52 1013.9
20260507003729 44 311 4.0 8.0 0.00 0.00 0.00 53 1013.9
20260507003230 44 298 4.0 8.0 0.00 0.00 0.00 53 1013.8
20260507003027 44 309 5.0 8.0 0.00 0.00 0.00 52 1013.9
20260507002806 44 294 5.0 8.0 0.00 0.00 0.00 52 1013.8
20260507001741 44 296 3.0 5.0 0.00 0.00 0.00 54 1013.8
20260507001728 44 309 4.0 8.0 0.00 0.00 0.00 52 1013.8
20260507001347 44 300 4.0 7.0 0.00 0.00 0.00 53 1013.8
20260507000803 44 304 3.0 7.0 0.00 0.00 0.00 53 1013.8
20260506235728 44 302 4.0 5.0 0.00 0.00 0.00 52 1013.8
20260506235233 44 295 5.0 10.0 0.00 0.00 0.00 53 1013.8
20260506234733 44 298 7.0 10.0 0.00 0.00 0.00 51 1013.8
20260506234229 44 310 6.0 9.0 0.00 0.00 0.00 51 1013.8
20260506233729 44 298 5.0 8.0 0.00 0.00 0.00 51 1013.8
20260506233235 44 292 5.0 8.0 0.00 0.00 0.00 52 1013.8
20260506232729 44 304 5.0 8.0 0.00 0.00 0.00 53 1013.8
20260506232513 45 298 5.0 9.0 0.00 0.00 0.00 52 1013.9
20260506232306 44 294 6.0 9.0 0.00 0.00 0.00 51 1013.9
20260506231228 45 292 5.0 9.0 0.00 0.00 0.00 52 1013.8
20260506230730 45 294 5.0 9.0 0.00 0.00 0.00 53 1013.8
20260506230233 45 306 6.0 10.0 0.00 0.00 0.00 51 1013.8
20260506225731 45 306 7.0 12.0 0.00 0.00 0.00 50 1013.9
20260506225229 45 317 5.0 12.0 0.00 0.00 0.00 51 1013.9
20260506224730 45 295 5.0 11.0 0.00 0.00 0.00 52 1013.9
20260506224233 45 299 5.0 11.0 0.00 0.00 0.00 52 1013.9
20260506223956 45 294 8.0 11.0 0.00 0.00 0.00 51 1013.9
20260506223804 45 309 7.0 11.0 0.00 0.00 0.00 51 1013.9
20260506222737 45 297 8.0 11.0 0.00 0.00 0.00 50 1014.0
20260506222237 45 302 8.0 11.0 0.00 0.00 0.00 50 1013.8
20260506221920 45 292 5.0 8.0 0.00 0.00 0.00 51 1013.9
20260506221801 45 304 6.0 9.0 0.00 0.00 0.00 49 1013.9
20260506220730 45 292 6.0 12.0 0.00 0.00 0.00 51 1013.9
20260506220230 45 304 6.0 12.0 0.00 0.00 0.00 50 1013.9
20260506215736 45 306 6.0 10.0 0.00 0.00 0.00 51 1013.9
20260506215231 45 297 8.0 11.0 0.00 0.00 0.00 51 1013.9
20260506214732 45 304 8.0 12.0 0.00 0.00 0.00 50 1013.9
20260506214236 45 308 8.0 12.0 0.00 0.00 0.00 50 1013.8
20260506213731 45 305 7.0 10.0 0.00 0.00 0.00 51 1013.8
20260506213231 45 312 7.0 12.0 0.00 0.00 0.00 50 1013.9
20260506212734 46 309 8.0 12.0 0.00 0.00 0.00 51 1013.8
20260506212623 46 309 7.0 12.0 0.00 0.00 0.00 49 1013.8
20260506212611 46 305 6.0 12.0 0.00 0.00 0.00 51 1013.8
20260506212336 46 313 8.0 12.0 0.00 0.00 0.00 51 1013.8
20260506210729 46 292 7.0 12.0 0.00 0.00 0.00 50 1013.8
20260506210232 46 291 8.0 12.0 0.00 0.00 0.00 49 1013.8
20260506205733 46 301 7.0 12.0 0.00 0.00 0.00 49 1013.7
20260506205233 46 297 6.0 10.0 0.00 0.00 0.00 51 1013.8
20260506204729 46 297 8.0 11.0 0.00 0.00 0.00 50 1013.9
20260506204229 46 311 9.0 13.0 0.00 0.00 0.00 49 1013.9
20260506203728 46 317 9.0 13.0 0.00 0.00 0.00 49 1013.9
20260506203558 46 300 8.0 10.0 0.00 0.00 0.00 51 1014.0
20260506203546 46 306 7.0 10.0 0.00 0.00 0.00 50 1013.9
20260506203528 46 302 8.0 12.0 0.00 0.00 0.00 50 1013.9
20260506203308 46 298 8.0 12.0 0.00 0.00 0.00 49 1013.9
20260506202941 46 278 8.0 12.0 0.00 0.00 0.00 52 1013.9
20260506201811 46 308 8.0 11.0 0.00 0.00 0.00 49 1013.9
20260506200855 46 311 8.0 10.0 0.00 0.00 0.00 51 1014.0
20260506200308 46 297 7.0 10.0 0.00 0.00 0.00 50 1014.0
20260506195229 46 296 7.0 10.0 0.00 0.00 0.00 51 1014.0
20260506194728 46 303 7.0 10.0 0.00 0.00 0.00 51 1013.9
20260506194229 46 303 6.0 10.0 0.00 0.00 0.00 51 1013.9
20260506193730 46 311 6.0 9.0 0.00 0.00 0.00 52 1013.9
20260506193457 47 302 6.0 9.0 0.00 0.00 0.00 50 1013.9
20260506193310 47 281 7.0 9.0 0.00 0.00 0.00 49 1013.9
20260506192230 47 303 5.0 9.0 0.00 0.00 0.00 52 1013.8